"startDT [UTC]","vpos","CH4 [ppm]","stdev(CH4) [ppm]","CO2 [ppm]","stdev(CO2) [ppm]","H2O_reported [%]","stdev(H2O_reported)","CavityPressure [torr]","CavityTemp [C]","OutletValve","CH4_dry [ppm]","CO2_dry [ppm]","DasTemp [C]","EtalonTemp [C]","WarmBoxTemp [C]","MPVPosition","T_ECpre [C]","T_EC1 [C]","T_EC2 [C]","p_inlet [hPa]","p_in [hPa]","p_out [hPa]","T_inlet [C]","RH_inlet [%]","dwpt_inlet [C]","T_vent [C]","RH_vent [%]","dwpt_vent [C]","flow_vent [l min-1]","flow_inlet [l min-1]","dwpt_sample [C]","T_room [C]"
2015-08-28 00:00:00,0.0,1.94934,0.00400,385.612,0.165,1.1022,0.0072,140.000,45.000,31236.31246,1.97169,390.903,34.956,45.068,45.000,0.00,0.10,-272.74,-272.80,-16,504,-945,25.3,26.6,4.7,25.0,27.7,5.1,5.73,1.93,4.1,28.9
2015-08-28 00:01:00,0.0,1.94962,0.00429,385.602,0.223,1.1010,0.0136,139.999,45.000,31237.38364,1.97115,390.899,34.963,45.068,45.000,0.00,0.10,-272.74,-272.80,-16,504,-945,25.3,26.7,4.8,25.0,27.6,5.0,5.73,1.93,4.1,28.9
2015-08-28 00:02:00,0.0,1.95342,0.00086,385.403,0.044,1.1119,0.0035,140.000,45.000,31238.07999,1.97557,390.748,34.950,45.068,45.000,0.00,0.10,-272.73,-272.79,-16,504,-945,25.3,26.9,4.9,25.0,28.0,5.2,5.73,1.93,4.1,28.9
2015-08-28 00:03:00,0.0,1.95688,0.00240,385.153,0.170,1.1346,0.0210,140.001,45.000,31236.57996,1.97941,390.603,34.939,45.068,45.000,0.00,0.10,-272.74,-272.80,-16,504,-945,25.3,27.7,5.3,25.0,28.3,5.4,5.73,1.93,4.1,28.9
2015-08-28 00:04:00,0.0,1.95559,0.00057,385.134,0.089,1.1779,0.0063,139.998,45.000,31235.72654,1.97913,390.800,34.938,45.068,45.000,0.00,0.10,-272.74,-272.80,-16,504,-945,25.3,28.8,5.8,25.0,29.6,6.0,5.73,1.93,4.1,28.9
2015-08-28 00:05:00,0.0,1.95479,0.00092,385.026,0.093,1.1872,0.0056,140.000,45.000,31237.64756,1.97859,390.744,34.940,45.068,45.000,0.00,0.10,-272.73,-272.80,-16,504,-945,25.3,29.0,6.0,25.0,29.9,6.2,5.73,1.93,4.1,29.0
2015-08-28 00:06:00,0.0,1.95473,0.00086,385.010,0.126,1.1806,0.0107,139.998,45.000,31238.60323,1.97832,390.689,34.938,45.068,45.000,0.00,0.10,-272.74,-272.80,-16,504,-945,25.3,28.7,5.8,25.0,29.9,6.1,5.73,1.93,4.1,29.0
2015-08-28 00:07:00,0.0,1.95532,0.00039,385.221,0.033,1.1632,0.0019,139.996,45.000,31236.87043,1.97855,390.817,34.937,45.068,45.000,0.00,0.10,-272.74,-272.81,-16,504,-945,25.3,28.3,5.6,25.0,29.4,5.9,5.73,1.93,4.1,29.0
2015-08-28 00:08:00,0.0,1.95497,0.00052,385.053,0.094,1.1685,0.0038,139.999,45.000,31236.29490,1.97828,390.679,34.933,45.068,45.000,0.00,0.10,-272.73,-272.80,-16,504,-945,25.3,28.5,5.7,25.0,29.4,5.9,5.73,1.93,4.1,28.9
2015-08-28 00:09:00,0.0,1.95526,0.00066,384.723,0.176,1.1710,0.0136,140.000,45.000,31237.28498,1.97871,390.357,34.937,45.068,45.000,0.00,0.10,-272.74,-272.80,-15,504,-945,25.3,28.5,5.7,25.0,29.6,6.0,5.73,1.93,4.1,28.9
2015-08-28 00:10:00,0.0,1.95643,0.00131,384.511,0.289,1.1792,0.0064,139.999,45.000,31236.57207,1.98002,390.174,34.938,45.068,45.000,0.00,0.10,-272.74,-272.80,-15,504,-945,25.3,28.8,5.8,25.0,29.7,6.1,5.73,1.93,4.1,29.0
2015-08-28 00:11:00,0.0,1.95455,0.00184,384.885,0.226,1.1697,0.0059,139.998,45.000,31234.98279,1.97783,390.506,34.935,45.068,45.000,0.00,0.10,-272.74,-272.80,-15,504,-945,25.3,28.4,5.7,25.0,29.6,6.0,5.73,1.94,4.1,28.9
2015-08-28 00:12:00,0.0,1.95278,0.00233,384.940,0.053,1.1656,0.0021,139.998,45.000,31238.02797,1.97624,390.544,34.929,45.068,45.000,0.00,0.10,-272.74,-272.79,-15,504,-945,25.3,28.4,5.6,25.0,29.4,5.9,5.73,1.93,4.1,28.9
2015-08-28 00:13:00,0.0,1.95607,0.00233,384.909,0.124,1.1651,0.0035,140.000,45.000,31236.60656,1.97921,390.516,34.909,45.068,45.000,0.00,0.10,-272.74,-272.80,-15,504,-945,25.3,28.4,5.6,25.0,29.4,5.9,5.73,1.93,4.1,29.0
2015-08-28 00:14:00,0.0,1.95703,0.00106,384.797,0.195,1.1679,0.0051,139.997,45.000,31237.04839,1.98039,390.408,34.920,45.068,45.000,0.00,0.10,-272.73,-272.80,-16,504,-945,25.3,28.4,5.7,25.0,29.4,5.9,5.73,1.93,4.1,29.0
2015-08-28 00:15:00,0.0,1.95995,0.00310,384.482,0.184,1.1767,0.0031,139.999,45.000,31237.25798,1.98319,390.138,34.936,45.068,45.000,0.00,0.10,-272.73,-272.79,-16,504,-945,25.3,28.7,5.8,25.0,29.7,6.0,5.73,1.94,4.1,29.0
2015-08-28 00:16:00,0.0,1.96251,0.00199,384.161,0.161,1.1890,0.0083,140.000,45.000,31237.48958,1.98633,389.873,34.938,45.068,45.000,0.00,0.10,-272.73,-272.79,-16,504,-945,25.3,29.0,6.0,25.0,30.0,6.2,5.73,1.94,4.1,29.0
2015-08-28 00:17:00,0.0,1.96725,0.00117,384.209,0.198,1.1870,0.0063,139.998,45.000,31235.06244,1.99109,389.910,34.939,45.068,45.000,0.00,0.10,-272.74,-272.80,-16,504,-945,25.3,28.9,5.9,25.0,30.0,6.2,5.73,1.95,4.1,28.9
2015-08-28 00:18:00,0.0,1.96355,0.00463,384.555,0.288,1.1628,0.0182,139.997,45.000,31236.51331,1.98701,390.141,34.941,45.068,45.000,0.00,0.10,-272.73,-272.80,-16,504,-945,25.3,28.2,5.6,25.0,29.5,6.0,5.73,1.94,4.1,29.0
2015-08-28 00:19:00,0.0,1.97163,0.00413,383.822,0.317,1.1836,0.0152,139.999,45.000,31236.49118,1.99526,389.515,34.946,45.068,45.000,0.00,0.10,-272.73,-272.80,-16,504,-945,25.3,29.0,5.9,25.0,29.7,6.0,5.73,1.95,4.1,29.0
2015-08-28 00:20:00,0.0,1.98168,0.00891,383.627,0.297,1.1810,0.0151,140.000,45.000,31236.69440,2.00506,389.288,34.983,45.067,45.000,0.00,0.10,-272.74,-272.80,-16,504,-945,25.3,28.7,5.8,25.0,29.9,6.1,5.73,1.95,4.1,29.0
2015-08-28 00:21:00,0.0,1.96768,0.02783,384.149,1.320,1.1579,0.0382,139.998,45.000,31237.48931,1.99286,389.673,34.986,45.067,45.000,0.00,0.10,-272.74,-272.80,-16,504,-945,25.3,28.0,5.4,25.0,29.5,6.0,5.73,1.95,4.1,29.0
2015-08-28 00:22:00,0.0,1.93203,0.00096,385.753,0.090,1.1106,0.0065,140.000,45.000,31237.86241,1.95398,391.094,34.997,45.067,45.000,0.00,0.10,-272.74,-272.79,-16,504,-945,25.3,26.9,4.8,25.0,28.0,5.2,5.73,1.95,4.1,29.0
2015-08-28 00:23:00,0.0,1.93199,0.00074,385.898,0.266,1.1036,0.0156,139.999,45.000,31239.28793,1.95375,391.202,34.982,45.067,45.000,0.00,0.10,-272.74,-272.80,-16,504,-945,25.3,26.7,4.7,25.0,27.8,5.1,5.73,1.95,4.1,29.0
2015-08-28 00:24:00,0.0,1.93048,0.00154,386.258,0.269,1.0835,0.0142,139.999,45.000,31237.31016,1.95186,391.468,34.960,45.067,45.000,0.00,0.10,-272.74,-272.81,-16,504,-945,25.3,26.0,4.4,25.0,27.3,4.8,5.73,1.96,4.1,28.9
2015-08-28 00:25:00,0.0,1.92915,0.00058,386.456,0.137,1.0692,0.0114,139.999,45.000,31240.56372,1.95012,391.603,34.945,45.068,45.000,0.00,0.10,-272.74,-272.80,-16,504,-945,25.3,25.9,4.3,25.0,26.8,4.6,5.73,1.96,4.1,29.0
2015-08-28 00:26:00,0.0,1.93012,0.00059,386.306,0.104,1.0825,0.0083,139.998,45.000,31241.11556,1.95143,391.513,34.948,45.068,45.000,0.00,0.10,-272.73,-272.80,-16,504,-945,25.3,26.1,4.5,25.0,27.2,4.8,5.73,1.96,4.1,29.0
2015-08-28 00:27:00,0.0,1.92964,0.00078,386.322,0.102,1.0742,0.0070,139.998,45.000,31239.95667,1.95081,391.491,34.963,45.068,45.000,0.00,0.10,-272.74,-272.80,-16,504,-945,25.3,26.0,4.4,25.0,27.0,4.7,5.73,1.96,4.1,29.0
2015-08-28 00:28:00,0.0,1.92929,0.00090,386.035,0.132,1.0927,0.0093,139.997,45.000,31239.23815,1.95077,391.289,34.947,45.068,45.000,0.00,0.10,-272.74,-272.80,-16,504,-945,25.3,26.4,4.6,25.0,27.4,4.9,5.73,1.96,4.1,29.0
2015-08-28 00:29:00,0.0,1.92778,0.00049,386.383,0.107,1.0692,0.0085,139.999,45.000,31239.08680,1.94880,391.525,34.972,45.068,45.000,0.00,0.10,-272.73,-272.79,-16,504,-945,25.3,25.8,4.3,25.0,26.9,4.6,5.73,1.97,4.1,29.0
2015-08-28 00:30:00,0.0,1.92753,0.00043,386.401,0.060,1.0663,0.0054,140.001,45.000,31240.10564,1.94849,391.530,34.979,45.068,45.000,0.00,0.10,-272.74,-272.80,-16,504,-945,25.3,25.7,4.2,25.0,26.8,4.6,5.73,1.97,4.1,29.0
2015-08-28 00:31:00,0.0,1.92740,0.00038,386.316,0.070,1.0682,0.0055,139.994,45.000,31238.10735,1.94835,391.457,34.974,45.068,45.000,0.00,0.10,-272.74,-272.81,-16,504,-945,25.2,25.8,4.3,25.0,26.8,4.6,5.73,1.96,4.1,29.0
2015-08-28 00:32:00,0.0,1.92818,0.00052,386.296,0.079,1.0712,0.0047,139.999,45.000,31238.48390,1.94922,391.446,34.940,45.068,45.000,0.00,0.10,-272.73,-272.80,-16,504,-945,25.3,25.9,4.3,25.0,26.9,4.6,5.73,1.96,4.1,28.9
2015-08-28 00:33:00,0.0,1.92850,0.00054,386.334,0.078,1.0706,0.0051,140.000,45.000,31238.62812,1.94953,391.483,34.938,45.068,45.000,0.00,0.10,-272.73,-272.80,-16,504,-945,25.3,25.9,4.3,25.0,26.9,4.6,5.73,1.96,4.1,28.9
2015-08-28 00:34:00,0.0,1.92843,0.00047,386.167,0.132,1.0805,0.0097,139.997,45.000,31239.43259,1.94966,391.366,34.939,45.068,45.000,0.00,0.10,-272.74,-272.81,-16,504,-945,25.3,26.2,4.5,25.0,27.0,4.7,5.73,1.96,4.1,28.9
2015-08-28 00:35:00,0.0,1.92853,0.00083,385.954,0.145,1.0910,0.0082,139.998,45.000,31239.37839,1.94994,391.205,34.940,45.068,45.000,0.00,0.10,-272.74,-272.80,-16,504,-945,25.3,26.5,4.6,25.0,27.4,4.9,5.73,1.96,4.1,29.0
2015-08-28 00:36:00,0.0,1.92780,0.00040,386.049,0.183,1.0826,0.0122,139.999,45.000,31239.83324,1.94914,391.250,34.938,45.068,45.000,0.00,0.10,-272.73,-272.79,-15,504,-945,25.3,26.2,4.5,25.0,27.3,4.8,5.73,1.96,4.1,29.0
2015-08-28 00:37:00,0.0,1.92766,0.00063,386.231,0.095,1.0669,0.0062,139.998,45.000,31240.01863,1.94861,391.362,34.938,45.068,45.000,0.00,0.10,-272.74,-272.80,-15,504,-945,25.3,25.8,4.3,25.0,26.8,4.6,5.73,1.96,4.1,28.9
2015-08-28 00:38:00,0.0,1.92826,0.00070,385.987,0.123,1.0864,0.0084,140.000,45.000,31238.94973,1.94960,391.211,34.938,45.068,45.000,0.00,0.10,-272.74,-272.80,-15,504,-945,25.3,26.3,4.6,25.0,27.2,4.8,5.73,1.95,4.1,28.9
2015-08-28 00:39:00,0.0,1.92791,0.00047,385.861,0.175,1.0954,0.0108,139.999,45.000,31239.12204,1.94939,391.133,34.939,45.068,45.000,0.00,0.10,-272.73,-272.79,-15,504,-945,25.3,26.7,4.7,25.0,27.4,4.9,5.73,1.95,4.1,28.9
2015-08-28 00:40:00,0.0,1.92809,0.00041,385.623,0.084,1.1114,0.0046,140.000,45.000,31241.10663,1.94995,390.965,34.938,45.068,45.000,0.00,0.10,-272.74,-272.80,-16,504,-945,25.2,27.0,4.9,25.0,28.0,5.2,5.73,1.95,4.1,28.9
2015-08-28 00:41:00,0.0,1.92854,0.00053,385.632,0.054,1.1144,0.0026,140.000,45.000,31239.41978,1.95046,390.991,34.938,45.068,45.000,0.00,0.10,-272.74,-272.80,-15,504,-945,25.2,27.1,5.0,25.0,28.1,5.2,5.73,1.96,4.1,28.9
2015-08-28 00:42:00,0.0,1.92820,0.00072,385.673,0.107,1.1148,0.0056,139.999,45.000,31239.85350,1.95016,391.031,34.938,45.068,45.000,0.00,0.10,-272.73,-272.79,-16,504,-945,25.3,27.1,4.9,25.0,28.1,5.2,5.73,1.95,4.1,28.9
2015-08-28 00:43:00,0.0,1.92799,0.00048,385.757,0.093,1.1066,0.0049,140.001,45.000,31239.88464,1.94974,391.081,34.938,45.068,45.000,0.00,0.10,-272.73,-272.80,-16,504,-945,25.2,26.9,4.8,25.0,27.9,5.2,5.73,1.95,4.1,28.9
2015-08-28 00:44:00,0.0,1.92801,0.00048,385.717,0.078,1.1107,0.0040,140.000,45.000,31240.04554,1.94989,391.056,34.938,45.068,45.000,0.00,0.10,-272.74,-272.81,-16,504,-945,25.2,26.9,4.9,25.0,28.0,5.2,5.73,1.94,4.1,28.9
2015-08-28 00:45:00,0.0,1.92732,0.00116,385.655,0.194,1.1091,0.0111,140.000,45.000,31239.05216,1.94907,390.992,34.943,45.068,45.000,0.00,0.10,-272.73,-272.80,-16,504,-945,25.2,27.0,4.9,25.0,27.9,5.2,5.73,1.94,4.1,28.9
2015-08-28 00:46:00,0.0,1.92683,0.00065,385.623,0.139,1.1077,0.0122,140.000,45.000,31239.63284,1.94864,390.947,34.939,45.068,45.000,0.00,0.10,-272.73,-272.79,-16,504,-945,25.3,26.8,4.8,25.0,28.0,5.2,5.73,1.94,4.1,28.9
2015-08-28 00:47:00,0.0,1.92735,0.00117,385.586,0.124,1.0997,0.0076,140.000,45.000,31239.26679,1.94901,390.871,34.938,45.068,45.000,0.00,0.10,-272.74,-272.81,-16,504,-945,25.3,26.6,4.7,25.0,27.7,5.0,5.73,1.94,4.1,28.9
2015-08-28 00:48:00,0.0,1.92642,0.00071,385.630,0.086,1.0984,0.0067,140.000,45.000,31238.12852,1.94797,390.908,34.938,45.068,45.000,0.00,0.10,-272.74,-272.80,-16,504,-945,25.3,26.7,4.7,25.0,27.6,5.0,5.73,1.94,4.1,28.9
2015-08-28 00:49:00,0.0,1.92673,0.00058,385.542,0.094,1.1054,0.0074,139.999,45.000,31238.92025,1.94847,390.854,34.938,45.068,45.000,0.00,0.10,-272.73,-272.80,-16,504,-945,25.3,26.8,4.8,25.0,27.8,5.1,5.73,1.94,4.1,28.9
2015-08-28 00:50:00,0.0,1.92689,0.00075,385.307,0.160,1.1133,0.0067,140.000,45.000,31239.34198,1.94874,390.663,34.937,45.068,45.000,0.00,0.10,-272.73,-272.80,-16,504,-945,25.2,27.1,5.0,25.0,28.0,5.2,5.73,1.93,4.1,28.9
2015-08-28 00:51:00,0.0,1.92622,0.00099,385.089,0.182,1.1230,0.0088,140.000,45.000,31238.48926,1.94836,390.479,34.939,45.068,45.000,0.00,0.10,-272.74,-272.81,-16,504,-945,25.3,27.2,5.0,25.0,28.3,5.3,5.73,1.93,4.1,28.9
2015-08-28 00:52:00,0.0,1.92641,0.00048,385.264,0.064,1.1110,0.0038,139.999,45.000,31237.80711,1.94823,390.600,34.939,45.068,45.000,0.00,0.10,-272.73,-272.79,-16,504,-945,25.3,27.0,4.9,25.0,28.0,5.2,5.73,1.93,4.1,28.9
2015-08-28 00:53:00,0.0,1.92791,0.00121,385.025,0.238,1.1170,0.0100,139.997,45.000,31237.18493,1.94975,390.396,34.938,45.068,45.000,0.00,0.10,-272.74,-272.79,-16,504,-945,25.3,27.2,5.0,25.0,28.1,5.2,5.73,1.93,4.1,28.9
2015-08-28 00:54:00,0.0,1.92831,0.00066,384.901,0.108,1.1203,0.0066,140.000,45.000,31237.87058,1.95039,390.280,34.939,45.068,45.000,0.00,0.10,-272.74,-272.80,-16,504,-945,25.2,27.2,5.0,25.0,28.2,5.3,5.73,1.93,4.1,28.9
2015-08-28 00:55:00,0.0,1.92806,0.00144,384.641,0.143,1.1291,0.0059,140.001,45.000,31237.55964,1.95035,390.058,34.945,45.068,45.000,0.00,0.10,-272.74,-272.80,-16,504,-945,25.3,27.4,5.1,25.0,28.4,5.4,5.73,1.93,4.1,28.9
2015-08-28 00:56:00,0.0,1.92541,0.00062,384.785,0.149,1.1238,0.0062,139.999,45.000,31238.27443,1.94750,390.181,34.949,45.068,45.000,0.00,0.10,-272.73,-272.79,-16,504,-945,25.3,27.3,5.1,25.0,28.3,5.3,5.73,1.93,4.1,28.9
2015-08-28 00:57:00,0.0,1.92668,0.00076,384.312,0.179,1.1461,0.0079,140.001,45.000,31239.29046,1.94916,389.813,34.950,45.068,45.000,0.00,0.10,-272.73,-272.80,-16,504,-945,25.3,27.9,5.4,25.0,28.8,5.6,5.73,1.92,4.1,29.0
2015-08-28 00:58:00,0.0,1.92788,0.00143,384.498,0.232,1.1323,0.0082,139.999,45.000,31238.79321,1.95014,389.930,34.958,45.068,45.000,0.00,0.10,-272.73,-272.81,-16,504,-945,25.3,27.6,5.2,25.0,28.7,5.5,5.73,1.92,4.1,28.9
2015-08-28 00:59:00,0.0,1.92859,0.00081,384.416,0.181,1.1338,0.0085,140.000,45.000,31237.36243,1.95092,389.853,34.949,45.068,45.000,0.00,0.10,-272.73,-272.79,-16,504,-945,25.2,27.5,5.2,25.0,28.6,5.5,5.73,1.93,4.1,28.9
2015-08-28 01:00:00,0.0,1.92749,0.00091,384.730,0.108,1.1199,0.0049,139.999,45.000,31236.55997,1.94951,390.103,34.976,45.068,45.000,0.00,0.10,-272.73,-272.80,-15,504,-945,25.3,27.2,5.0,25.0,28.3,5.3,5.73,1.93,4.1,28.9
2015-08-28 01:01:00,0.0,1.92817,0.00086,384.590,0.096,1.1255,0.0047,139.999,45.000,31235.67534,1.95031,389.990,34.998,45.067,45.000,0.00,0.10,-272.74,-272.80,-16,504,-944,25.3,27.3,5.1,25.0,28.4,5.4,5.73,1.93,4.1,28.9
2015-08-28 01:02:00,0.0,1.92860,0.00107,384.641,0.166,1.1245,0.0099,139.999,45.000,31237.23307,1.95065,390.034,34.997,45.067,45.000,0.00,0.10,-272.74,-272.80,-15,504,-945,25.3,27.3,5.1,25.0,28.4,5.4,5.73,1.93,4.1,28.9
2015-08-28 01:03:00,0.0,1.92994,0.00208,384.772,0.177,1.1155,0.0085,139.999,45.000,31238.29178,1.95193,390.123,35.000,45.067,45.000,0.00,0.10,-272.73,-272.80,-15,504,-945,25.3,27.0,4.9,24.9,28.1,5.2,5.73,1.93,4.1,28.9
2015-08-28 01:04:00,0.0,1.93337,0.00302,384.646,0.165,1.1201,0.0074,139.999,45.000,31236.58105,1.95517,390.025,35.001,45.067,45.000,0.00,0.10,-272.74,-272.80,-15,504,-945,25.3,27.2,5.0,25.0,28.2,5.3,5.73,1.93,4.1,28.9
2015-08-28 01:05:00,0.0,1.94446,0.00402,384.008,0.136,1.1510,0.0081,140.000,45.000,31236.98902,1.96693,389.529,35.006,45.067,45.000,0.00,0.10,-272.74,-272.80,-16,504,-944,25.3,28.0,5.5,25.0,28.9,5.6,5.73,1.93,4.1,28.9
2015-08-28 01:06:00,0.0,1.94090,0.00520,384.354,0.349,1.1439,0.0136,139.998,45.000,31235.80143,1.96428,389.824,35.031,45.067,45.000,0.00,0.10,-272.74,-272.79,-15,504,-944,25.3,27.7,5.3,25.0,29.0,5.7,5.73,1.94,4.1,29.0
2015-08-28 01:07:00,0.0,1.93827,0.00424,384.744,0.214,1.1322,0.0144,139.998,45.000,31236.84253,1.96038,390.185,35.017,45.067,45.000,0.00,0.10,-272.74,-272.80,-16,504,-945,25.3,27.6,5.2,25.0,28.6,5.5,5.73,1.95,4.1,29.0
2015-08-28 01:08:00,0.0,1.93762,0.00192,384.741,0.083,1.1373,0.0032,140.001,45.000,31239.35147,1.96028,390.198,35.015,45.067,45.000,0.00,0.10,-272.74,-272.80,-16,504,-945,25.3,27.6,5.2,25.0,28.7,5.6,5.73,1.95,4.1,28.9
2015-08-28 01:09:00,0.0,1.93321,0.00136,385.062,0.141,1.1289,0.0080,139.998,45.000,31239.38948,1.95557,390.482,35.027,45.067,45.000,0.00,0.10,-272.74,-272.80,-16,504,-944,25.3,27.4,5.1,25.0,28.5,5.5,5.73,1.95,4.1,28.9
2015-08-28 01:10:00,0.0,1.92806,0.00185,385.482,0.130,1.1087,0.0082,139.999,45.000,31239.23502,1.94999,390.806,35.028,45.067,45.000,0.00,0.10,-272.73,-272.80,-16,504,-945,25.3,26.9,4.8,24.9,28.1,5.2,5.73,1.95,4.1,28.9
2015-08-28 01:11:00,0.0,1.92768,0.00168,385.495,0.127,1.1108,0.0096,139.999,45.000,31238.75505,1.94948,390.835,35.042,45.067,45.000,0.00,0.10,-272.74,-272.80,-16,504,-944,25.3,27.0,4.9,25.0,27.9,5.1,5.73,1.96,4.1,28.9
2015-08-28 01:12:00,0.0,1.92867,0.00121,385.333,0.086,1.1230,0.0064,139.998,45.000,31238.40182,1.95068,390.733,35.025,45.067,45.000,0.00,0.10,-272.74,-272.80,-16,504,-944,25.3,27.3,5.1,24.9,28.3,5.3,5.73,1.97,4.1,28.9
2015-08-28 01:13:00,0.0,1.93100,0.00078,385.111,0.054,1.1360,0.0038,140.001,45.000,31239.46636,1.95341,390.570,35.010,45.068,45.000,0.00,0.10,-272.73,-272.79,-16,504,-944,25.2,27.6,5.2,25.0,28.6,5.5,5.73,1.97,4.1,28.9
2015-08-28 01:14:00,0.0,1.92881,0.00149,385.262,0.100,1.1280,0.0065,140.000,45.000,31237.80109,1.95105,390.681,35.012,45.068,45.000,0.00,0.10,-272.74,-272.80,-16,504,-944,25.3,27.5,5.2,24.9,28.5,5.4,5.73,1.96,4.1,28.9
2015-08-28 01:15:00,0.0,1.93103,0.00088,384.992,0.146,1.1477,0.0107,139.999,45.000,31235.98710,1.95363,390.510,35.029,45.068,45.000,0.00,0.10,-272.74,-272.80,-16,504,-944,25.3,28.0,5.4,24.9,28.9,5.6,5.73,1.97,4.1,28.9
2015-08-28 01:16:00,0.0,1.93103,0.00098,384.961,0.081,1.1482,0.0053,140.000,45.000,31234.85316,1.95374,390.478,35.016,45.068,45.000,0.00,0.10,-272.73,-272.80,-16,504,-944,25.3,27.9,5.4,24.9,29.0,5.7,5.73,1.97,4.1,28.9
2015-08-28 01:17:00,0.0,1.92981,0.00105,385.116,0.110,1.1347,0.0062,140.000,45.000,31237.00349,1.95211,390.571,35.001,45.068,45.000,0.00,0.10,-272.74,-272.80,-16,504,-944,25.3,27.6,5.2,25.0,28.7,5.5,5.73,1.97,4.1,28.9
2015-08-28 01:18:00,0.0,1.92989,0.00146,384.990,0.129,1.1384,0.0067,139.999,45.000,31237.15122,1.95243,390.458,34.999,45.068,45.000,0.00,0.10,-272.74,-272.80,-16,504,-945,25.3,27.6,5.2,24.9,28.7,5.5,5.73,1.97,4.1,28.9
2015-08-28 01:19:00,0.0,1.92839,0.00073,385.009,0.091,1.1370,0.0039,140.002,45.000,31239.02327,1.95075,390.474,35.000,45.068,45.000,0.00,0.10,-272.74,-272.80,-16,504,-944,25.3,27.7,5.3,24.9,28.7,5.5,5.73,1.97,4.1,28.9
2015-08-28 01:20:00,0.0,1.92792,0.00079,384.831,0.087,1.1455,0.0052,139.999,45.000,31237.90021,1.95053,390.331,35.000,45.068,45.000,0.00,0.10,-272.74,-272.79,-16,504,-944,25.3,27.8,5.3,25.0,28.9,5.6,5.73,1.96,4.1,28.9
2015-08-28 01:21:00,0.0,1.92709,0.00114,384.807,0.106,1.1449,0.0070,139.997,45.000,31235.06481,1.94968,390.307,35.000,45.068,45.000,0.00,0.10,-272.74,-272.80,-16,504,-944,25.3,27.8,5.3,24.9,28.9,5.6,5.73,1.96,4.1,28.9
2015-08-28 01:22:00,0.0,1.92520,0.00065,384.772,0.190,1.1419,0.0106,140.000,45.000,31236.37677,1.94762,390.258,35.003,45.068,45.000,0.00,0.10,-272.74,-272.80,-16,504,-944,25.3,27.8,5.3,24.9,28.8,5.6,5.73,1.96,4.1,28.9
2015-08-28 01:23:00,0.0,1.92413,0.00077,384.777,0.133,1.1387,0.0073,139.997,45.000,31236.59724,1.94653,390.245,35.001,45.068,45.000,0.00,0.10,-272.73,-272.80,-16,504,-944,25.3,27.7,5.3,25.0,28.8,5.6,5.73,1.96,4.1,28.9
2015-08-28 01:24:00,0.0,1.92325,0.00080,384.690,0.092,1.1362,0.0058,139.999,45.000,31237.42714,1.94556,390.149,35.001,45.068,45.000,0.00,0.10,-272.74,-272.80,-16,504,-944,25.3,27.6,5.3,24.9,28.7,5.5,5.73,1.96,4.1,28.9
2015-08-28 01:25:00,0.0,1.92457,0.00096,384.499,0.169,1.1418,0.0096,139.999,45.000,31236.03238,1.94708,389.972,35.000,45.068,45.000,0.00,0.10,-272.74,-272.80,-16,504,-944,25.3,27.7,5.3,24.9,28.8,5.6,5.73,1.95,4.1,29.0
2015-08-28 01:26:00,0.0,1.92300,0.00064,384.802,0.098,1.1179,0.0043,139.999,45.000,31234.63169,1.94491,390.173,35.002,45.068,45.000,0.00,0.10,-272.73,-272.80,-16,504,-944,25.2,27.2,5.0,25.0,28.3,5.3,5.73,1.95,4.1,28.9
2015-08-28 01:27:00,0.0,1.92191,0.00112,384.891,0.221,1.1077,0.0135,140.000,45.000,31235.57023,1.94368,390.203,35.000,45.068,45.000,0.00,0.10,-272.74,-272.80,-16,504,-944,25.2,26.8,4.8,24.9,28.0,5.2,5.73,1.94,4.1,28.9
2015-08-28 01:28:00,0.0,1.92169,0.00086,384.890,0.123,1.1089,0.0059,139.999,45.000,31235.69605,1.94338,390.213,34.999,45.068,45.000,0.00,0.10,-272.74,-272.80,-16,504,-944,25.2,26.9,4.8,24.9,27.9,5.1,5.73,1.94,4.1,28.9
2015-08-28 01:29:00,0.0,1.92234,0.00073,384.499,0.241,1.1317,0.0135,139.998,45.000,31236.15481,1.94455,389.927,34.982,45.068,45.000,0.00,0.10,-272.73,-272.80,-15,504,-944,25.3,27.5,5.2,24.9,28.4,5.4,5.73,1.93,4.1,28.9
2015-08-28 01:30:00,0.0,1.92345,0.00119,384.379,0.241,1.1404,0.0126,140.003,45.000,31235.66983,1.94584,389.845,34.972,45.068,45.000,0.00,0.10,-272.73,-272.80,-15,504,-944,25.3,27.7,5.3,24.9,28.8,5.5,5.73,1.93,4.1,28.9
2015-08-28 01:31:00,0.0,1.92360,0.00151,384.585,0.274,1.1297,0.0137,140.000,45.000,31236.47967,1.94585,390.004,34.972,45.068,45.000,0.00,0.10,-272.74,-272.80,-16,504,-944,25.3,27.4,5.1,25.0,28.6,5.5,5.73,1.93,4.1,28.9
2015-08-28 01:32:00,0.0,1.92187,0.00153,384.975,0.263,1.1072,0.0141,139.999,45.000,31235.14091,1.94352,390.290,34.988,45.068,45.000,0.00,0.10,-272.74,-272.80,-16,504,-944,25.3,26.9,4.8,24.9,28.0,5.2,5.73,1.92,4.1,28.9
2015-08-28 01:33:00,0.0,1.92329,0.00164,384.813,0.252,1.1160,0.0118,139.998,45.000,31236.68699,1.94522,390.163,34.990,45.068,45.000,0.00,0.10,-272.73,-272.79,-16,504,-944,25.3,27.1,4.9,25.0,28.1,5.2,5.73,1.92,4.1,28.9
2015-08-28 01:34:00,0.0,1.92208,0.00086,384.970,0.153,1.1094,0.0084,140.001,45.000,31235.97530,1.94384,390.296,34.987,45.068,45.000,0.00,0.10,-272.74,-272.80,-15,504,-944,25.3,26.9,4.9,25.0,27.9,5.1,5.73,1.92,4.1,28.9
2015-08-28 01:35:00,0.0,1.92398,0.00257,384.870,0.253,1.1113,0.0097,139.999,45.000,31236.12638,1.94547,390.214,34.998,45.067,45.000,0.00,0.10,-272.74,-272.80,-16,504,-944,25.3,27.1,4.9,24.9,28.0,5.2,5.73,1.92,4.1,28.9
2015-08-28 01:36:00,0.0,1.92472,0.00218,384.621,0.227,1.1273,0.0100,139.998,45.000,31235.57332,1.94718,390.018,34.987,45.068,45.000,0.00,0.10,-272.73,-272.79,-15,504,-944,25.2,27.3,5.1,25.0,28.4,5.4,5.73,1.92,4.1,28.9
2015-08-28 01:37:00,0.0,1.92189,0.00110,384.990,0.180,1.1048,0.0072,139.999,45.000,31238.37543,1.94350,390.296,35.000,45.068,45.000,0.00,0.10,-272.73,-272.80,-15,504,-944,25.2,26.9,4.8,24.9,27.9,5.1,5.73,1.92,4.1,28.9
2015-08-28 01:38:00,0.0,1.92242,0.00102,384.869,0.182,1.1130,0.0084,139.998,45.000,31236.18407,1.94422,390.210,35.001,45.067,45.000,0.00,0.10,-272.74,-272.81,-16,504,-944,25.2,27.1,4.9,24.9,28.0,5.2,5.73,1.92,4.1,28.9
2015-08-28 01:39:00,0.0,1.92346,0.00093,384.737,0.133,1.1221,0.0048,139.999,45.000,31236.20589,1.94550,390.120,35.001,45.068,45.000,0.00,0.10,-272.74,-272.80,-16,504,-944,25.2,27.2,5.0,24.9,28.3,5.3,5.73,1.93,4.1,28.9
2015-08-28 01:40:00,0.0,1.92249,0.00062,384.993,0.238,1.1111,0.0056,139.996,45.000,31235.73059,1.94430,390.321,35.004,45.068,45.000,0.00,0.10,-272.73,-272.80,-16,504,-944,25.2,27.0,4.9,24.9,28.1,5.2,5.73,1.93,4.1,28.9
2015-08-28 01:41:00,0.0,1.92249,0.00088,384.886,0.171,1.1148,0.0069,140.000,45.000,31236.11459,1.94431,390.244,35.002,45.068,45.000,0.00,0.10,-272.74,-272.80,-16,504,-944,25.2,27.1,4.9,24.9,28.1,5.2,5.73,1.93,4.1,28.9
2015-08-28 01:42:00,0.0,1.92417,0.00106,384.572,0.201,1.1288,0.0106,140.001,45.000,31236.58167,1.94626,389.991,35.002,45.067,45.000,0.00,0.10,-272.74,-272.80,-16,504,-944,25.2,27.5,5.2,24.9,28.3,5.3,5.73,1.94,4.1,28.9
2015-08-28 01:43:00,0.0,1.92942,0.00400,383.689,0.451,1.1663,0.0210,139.997,45.000,31232.70440,1.95186,389.295,35.006,45.068,45.000,0.00,0.10,-272.74,-272.80,-16,504,-944,25.2,28.7,5.8,24.9,29.2,5.8,5.73,1.94,4.1,29.0
2015-08-28 01:44:00,0.0,1.93151,0.00356,383.571,0.486,1.1832,0.0186,140.000,45.000,31234.58081,1.95521,389.233,35.000,45.068,45.000,0.00,0.10,-272.74,-272.80,-16,504,-944,25.3,28.8,5.8,25.0,30.0,6.2,5.73,1.95,4.1,29.0
2015-08-28 01:45:00,0.0,1.92720,0.00108,384.488,0.250,1.1448,0.0143,139.999,45.000,31233.14626,1.94986,389.973,35.015,45.068,45.000,0.00,0.10,-272.74,-272.80,-16,504,-944,25.3,27.8,5.3,25.0,29.1,5.8,5.73,1.95,4.1,29.0
2015-08-28 01:46:00,0.0,1.92626,0.00063,384.666,0.092,1.1334,0.0037,139.998,45.000,31234.03472,1.94858,390.103,35.022,45.068,45.000,0.00,0.10,-272.73,-272.79,-16,504,-944,25.2,27.5,5.2,25.0,28.6,5.5,5.73,1.97,4.1,28.9